星链-37324(STARLINK-37324)

导读

STARLINK-37324(NORAD编号68749)是美国SpaceX公司星链(Starlink)星座的一员,属于低轨互联网通信卫星。星链项目旨在构建全球覆盖的天基互联网系统,该卫星运行在近地轨道,为全球用户提供低成本、高速的卫星互联网接入服务。作为SpaceX批量生产的星链卫星之一,它参与了星座组网,支撑全球偏远地区网络覆盖、应急通信等场景应用,目前SpaceX正逐步调整轨道高度,降低碰撞风险,保障星座安全运行。

基本信息
目录编号:
68749
目录名称:
STARLINK-37324
国际标识:
2026-082X
轨道中心:
EARTH
卫星名称:
星链-37324
卫星全名:
星链-37324(STARLINK-37324)
卫星状态:
在轨 (已飞行142 天)
发射日期:
2026-04-15 UTC
国别 :
美国 (US)
星等 :
--
轨道信息
数据来源 国际轨道数据
星历时间: 2026-09-04T10:10:58+0800
9小时前
查看轨道信息
半长轴: 6843.682km
偏心率: 0.0002863
轨道倾角: 97.285°
近地点辐角 73.952°
升交点赤经 109.521°
平近点角 286.204°
近地点: 463.585km
远地点: 467.505km
周期: 93.906分钟
每日圈数: 15.334445
详细信息
固有亮度:
5
最大亮度:
2.5
卫星平台:
Starlink V1.0
覆盖范围:
全球
运营商:
太空探索技术公司
运营商所在国:
美国
制造商(研发单位):
太空探索技术公司
制造商所在国:
美国
使用方式:
暂无
卫星简介
Starlink 计划是 SpaceX 推出的全球卫星互联网项目,通过发射低轨道卫星,为全球尤其是偏远地区提供高速、低延迟的互联网服务。自 2019 年起,Starlink 已部署数千颗卫星,旨在缩小全球数字鸿沟,推动互联网普及。该项目还为军事、航空等行业提供通信支持,带来广泛经济效益。
2D轨道图
3D轨道图
轨道高度分析图
轨道倾角分析图
轨道综合分析图
查看轨道综合分析图
交会数据列表
事件ID 空间交会对象 最接近时刻(TCA) 交会距离 交会风险概率(CRP) 交会风险指数(CRI) 操作
CDM_260906-005106-758706-874921
2026-09-06T
00:51:55+0000
1.681 km
极远距离
4.568493E-6 低风险 0.48
CDM_260904-123504-864306-874921
2026-09-04T
12:35:33+0000
2.359 km
极远距离
1.762586E-6 低风险 0.4
CDM_260905-071905-803506-874921
2026-09-05T
07:19:49+0000
2.645 km
极远距离
1.558919E-6 低风险 0.39
CDM_260905-201405-407506-874921
2026-09-05T
20:14:50+0000
2.670 km
极远距离
1.482011E-6 低风险 0.38
CDM_260904-201506-029206-874921
2026-09-04T
20:15:14+0000
2.778 km
极远距离
1.476458E-6 低风险 0.38
CDM_260904-000304-864006-874921
2026-09-04T
00:03:53+0000
2.824 km
极远距离
1.296347E-6 低风险 0.37
CDM_260906-111605-363606-874921
2026-09-06T
11:16:13+0000
2.264 km
极远距离
1.244701E-6 低风险 0.37